Orbital Elements
Epoch 2022 Oct. 28.0 TT = JDT 2459880.5
T 2022 Oct. 23.79889 TT MPCW
q 2.1258201 (2000.0) P Q
n 0.13897221 Peri. 221.65204 +0.90802865 -0.41778786
a 3.6913402 Node 162.96740 +0.40665078 +0.86155281
e 0.4241061 Incl. 5.99941 +0.10059385 +0.28840952
P 7.09
From 791 observations 2000 Apr. 22-2015 Aug. 25, mean residual 0".8.
Nongravitational parameters A1 = +0.62, A2 = -0.2627.
|